Wind_Speed
37 37 37 37 38 38 39 39 40 40 41 41 41 41 41 40 40 40 39 39 39 38 38 37 37 36 34 35 36 35 35 34 34 32 31 30 29 28 29 29 29 29 30
38 37 37 36 36 36 36 37 38 38 38 38 38 38 38 37 36 35 35 34 34 34 34 33 32 31 32 33 33 32 32 32 32 30 29 29 28 28 28 28 28 29 30
38 37 36 35 35 35 35 35 35 36 35 35 34 33 32 31 30 29 29 29 28 28 28 29 29 28 29 29 29 29 29 28 28 27 27 27 27 27 27 28 28 29 30
38 37 37 35 35 34 34 34 33 32 32 31 29 28 26 25 25 24 23 24 24 23 24 27 27 27 27 26 27 27 26 25 24 24 24 24 24 25 26 27 28 29 31
38 37 36 35 34 33 33 32 31 29 28 26 24 22 21 20 18 19 19 19 18 20 21 23 24 24 24 25 25 26 26 24 23 23 22 22 22 23 25 26 27 29 31
38 37 36 35 34 32 31 30 28 27 25 23 22 20 18 17 15 15 15 17 17 17 19 20 21 22 23 24 25 25 24 22 21 20 20 20 21 23 24 25 27 29 31
39 37 36 35 33 32 31 29 27 24 23 22 20 18 16 13 12 11 12 13 14 15 17 17 17 18 19 20 20 20 19 17 17 16 17 18 19 21 22 24 26 28 30
39 37 35 35 33 31 29 27 25 22 21 19 17 15 13 11 11 11 10 11 12 13 14 16 15 15 15 16 16 14 13 13 13 13 14 15 17 19 20 22 24 27 29
39 37 35 34 32 30 28 26 23 20 18 17 15 13 11 10 9 9 10 10 10 11 11 12 11 11 11 11 11 10 10 10 10 10 11 12 14 16 18 21 24 26 29
40 37 36 34 32 31 28 25 22 19 18 16 14 12 10 8 8 9 9 9 10 10 10 10 10 9 9 9 9 8 7 7 7 8 9 10 12 15 18 20 23 26 28
41 39 37 35 32 30 27 24 21 19 17 15 13 11 9 7 7 8 8 8 9 9 9 9 9 8 8 7 7 6 5 5 6 6 7 10 12 15 18 20 23 25 26
43 41 38 35 32 29 26 24 21 20 17 15 13 11 9 8 7 7 8 8 9 10 10 9 8 8 7 7 6 5 5 5 5 6 8 11 13 16 19 21 24 25 26
45 42 39 36 32 29 26 24 22 20 18 16 14 12 10 9 9 9 9 9 9 9 9 9 9 8 7 6 6 5 5 5 6 8 10 12 14 17 20 22 24 25 26
46 44 41 38 34 30 28 25 23 22 20 17 16 14 12 11 10 10 10 10 10 9 10 10 9 8 7 7 6 6 6 6 7 9 11 13 15 18 20 23 25 26 27
46 44 40 37 34 31 29 27 25 23 22 20 18 16 14 13 12 12 12 11 11 11 10 10 9 9 8 8 7 7 7 7 9 10 12 14 16 18 21 23 25 27 28
46 44 40 37 35 33 30 27 26 25 24 22 20 18 17 15 14 14 13 13 12 12 11 11 11 10 9 9 9 8 9 9 11 12 13 15 17 19 22 24 26 28 29
42 42 39 36 35 34 32 29 28 27 26 24 22 20 19 17 16 16 15 14 13 13 12 12 12 11 11 11 10 10 11 11 13 14 15 16 18 20 22 24 26 28 29
38 39 38 35 36 35 33 31 30 29 27 25 24 22 21 19 18 18 17 16 15 14 14 13 13 13 13 13 12 12 13 14 14 15 16 17 19 20 22 24 26 28 29
34 36 37 35 35 35 33 32 31 30 28 27 26 24 22 21 20 19 18 17 16 15 15 14 14 14 14 15 14 14 15 16 16 16 17 19 20 21 22 24 26 28 28
31 34 35 35 36 35 33 32 32 30 29 28 26 25 23 22 20 20 19 18 17 17 16 16 15 16 16 16 16 17 17 18 18 18 19 20 21 21 22 24 26 27 28
28 31 33 34 35 34 33 31 31 30 29 28 28 26 25 23 22 20 19 18 18 18 17 17 17 17 18 18 18 19 19 19 19 19 20 21 21 22 22 24 26 27 28
28 30 33 35 35 34 32 31 30 30 29 29 28 26 25 23 22 21 20 19 19 18 18 19 19 19 19 20 20 21 21 21 21 21 21 21 22 23 23 25 26 27 28
27 30 33 34 35 34 32 30 29 29 29 28 27 26 24 23 22 21 21 21 20 20 19 20 20 20 21 22 22 22 23 22 22 22 22 22 22 23 24 25 26 27 28
28 30 33 34 34 33 32 30 29 28 28 27 25 24 23 23 22 21 21 21 20 20 20 20 21 21 22 23 23 23 23 23 23 22 22 22 23 24 25 26 27 28 29
28 30 32 34 33 32 31 30 29 28 27 26 24 23 21 20 19 19 19 19 19 19 20 20 21 22 22 22 23 23 23 23 23 22 22 23 23 24 25 26 27 28 30
29 30 31 34 32 31 30 29 28 28 26 25 23 21 20 19 17 17 16 16 17 18 18 19 20 20 21 21 22 22 22 23 23 23 23 23 24 25 26 27 29 30 32
Wind_Direction
311 310 306 303 300 297 295 293 292 290 288 287 287 286 285 285 281 278 275 270 268 266 265 262 262 261 257 255 254 254 252 250 248 246 243 239 239 241 244 246 249 252 254
312 311 309 306 303 301 299 297 295 293 291 289 288 287 287 285 281 279 274 269 265 263 260 258 259 256 253 251 250 250 248 247 247 245 242 241 241 242 245 248 251 254 257
311 310 309 307 305 303 302 301 298 295 294 293 292 288 287 284 281 276 272 267 262 258 256 253 252 249 246 245 245 244 244 244 243 241 242 242 242 245 249 252 255 257 259
308 308 307 306 305 304 304 304 302 299 297 296 295 291 289 286 281 276 272 265 258 255 250 248 246 243 240 241 242 242 241 240 238 241 243 245 248 251 255 257 260 263 265
306 305 305 305 305 304 304 304 303 302 300 298 298 295 292 290 284 275 265 262 255 247 244 242 239 237 239 243 242 242 239 238 238 240 245 250 254 257 260 263 266 269 271
303 302 302 302 302 303 304 303 301 301 301 300 298 297 294 292 286 277 263 254 249 246 243 239 237 238 239 239 239 238 235 233 237 243 248 253 258 262 267 270 274 276 278
299 298 299 299 298 299 300 301 299 298 298 297 294 294 294 290 282 276 259 251 244 241 237 238 239 238 238 234 230 226 225 229 237 243 251 258 264 269 274 278 281 282 283
293 293 293 295 294 294 297 296 295 294 294 293 289 290 285 280 276 267 252 244 243 239 233 230 228 229 228 223 219 219 223 230 237 247 258 266 273 278 282 285 287 288 289
288 288 289 290 289 289 290 290 289 288 289 288 288 285 282 275 266 257 250 244 238 224 217 215 214 214 213 212 209 211 220 229 242 256 267 275 282 288 293 295 297 298 298
280 281 282 282 282 282 282 282 281 279 281 280 281 278 277 270 261 256 245 236 223 212 205 202 198 197 198 202 204 210 219 232 248 262 275 286 295 301 304 306 307 307 306
272 272 273 273 273 274 274 273 272 270 270 268 266 264 263 257 246 237 228 219 211 206 198 191 188 189 193 195 196 206 221 240 258 274 290 302 309 313 315 316 317 316 314
265 265 265 265 265 265 265 264 262 260 258 255 254 250 247 243 234 222 214 207 204 197 189 186 184 185 188 191 198 214 233 250 268 289 305 314 320 323 324 325 325 324 322
258 256 256 256 256 256 255 252 251 249 246 244 242 239 235 229 222 216 210 201 190 186 186 186 188 190 194 199 209 225 243 264 287 302 312 321 327 331 331 331 330 330 328
253 250 248 247 246 246 245 242 241 240 237 234 233 229 224 218 214 211 207 204 199 196 194 194 194 197 203 211 225 242 260 280 296 307 316 324 330 334 336 336 336 335 333
248 245 243 241 238 238 237 234 231 231 229 227 227 224 221 215 211 208 204 203 201 199 198 199 202 209 217 226 238 253 271 287 299 308 317 323 329 333 337 340 340 340 338
244 239 238 237 232 230 230 227 225 224 223 222 222 220 218 216 214 210 206 203 203 205 208 211 215 220 228 237 248 262 275 288 298 306 314 321 327 332 337 339 341 341 341
241 235 233 231 226 224 224 222 219 218 216 216 216 215 215 215 215 212 209 208 210 213 215 219 224 230 238 246 255 266 275 284 294 303 311 318 323 329 333 336 339 340 340
235 230 227 224 220 217 218 215 213 213 212 213 213 214 214 215 215 214 213 213 215 218 222 227 231 236 243 251 259 268 275 282 289 297 306 314 319 324 329 334 337 338 339
229 225 222 218 212 211 211 211 210 209 209 210 212 213 213 214 215 215 215 216 219 223 228 233 237 241 247 254 260 268 274 280 286 292 301 309 315 320 325 330 335 337 338
225 221 215 214 211 208 208 209 208 207 207 207 209 211 213 213 215 216 218 220 223 227 232 237 241 246 251 256 261 267 273 278 285 292 299 306 312 316 322 327 331 334 336
219 214 210 208 205 202 204 206 205 204 204 205 208 210 211 213 217 219 221 224 228 232 236 240 245 250 254 258 262 268 273 278 284 290 297 302 307 313 317 323 328 331 334
211 208 204 199 201 201 201 201 201 201 202 204 207 209 211 215 218 221 224 227 231 235 240 244 247 251 255 259 264 269 273 278 284 290 295 300 304 309 313 318 323 328 331
204 202 198 196 198 199 198 197 198 199 200 202 205 208 212 215 219 223 227 230 235 240 243 246 250 253 257 261 265 269 273 277 282 287 293 299 302 306 311 315 319 324 327
199 197 195 192 193 194 193 193 195 196 198 201 205 209 212 216 221 226 231 236 240 242 245 249 252 255 259 263 266 269 272 276 281 285 292 298 302 305 310 313 317 321 324
194 193 191 188 188 189 189 191 192 193 196 201 205 208 212 217 223 230 234 237 241 245 249 252 254 258 261 263 264 267 272 275 280 285 291 297 301 305 309 313 316 320 322
188 187 185 183 183 185 187 187 188 190 194 198 202 208 213 217 223 229 233 239 244 249 252 255 258 261 263 264 265 267 270 274 279 285 291 296 301 305 309 312 315 318 320
Height
5771 5766 5761 5757 5753 5749 5745 5742 5739 5736 5733 5730 5728 5725 5723 5720 5717 5716 5716 5716 5716 5717 5718 5720 5722 5724 5726 5728 5731 5734 5736 5738 5740 5742 5745 5747 5749 5751 5754 5756 5758 5759 5760
5762 5758 5753 5748 5744 5740 5736 5732 5729 5725 5722 5719 5716 5713 5710 5708 5706 5704 5703 5704 5704 5706 5707 5709 5711 5714 5717 5719 5722 5724 5727 5729 5732 5734 5737 5739 5741 5744 5746 5748 5750 5751 5752
5754 5749 5745 5740 5736 5732 5728 5723 5719 5716 5712 5709 5706 5702 5700 5698 5696 5695 5694 5694 5694 5695 5697 5700 5702 5705 5708 5711 5713 5716 5719 5721 5724 5727 5730 5732 5734 5736 5738 5740 5741 5742 5743
5746 5741 5737 5732 5728 5724 5720 5715 5711 5707 5704 5700 5697 5694 5691 5689 5688 5687 5686 5686 5686 5687 5690 5692 5694 5698 5701 5703 5706 5709 5712 5714 5717 5720 5722 5725 5727 5729 5731 5732 5733 5733 5734
5737 5733 5728 5724 5720 5716 5712 5708 5704 5700 5696 5693 5690 5687 5685 5683 5681 5680 5680 5680 5681 5682 5684 5685 5688 5691 5694 5697 5700 5703 5706 5708 5711 5714 5716 5719 5721 5722 5723 5724 5724 5724 5724
5728 5724 5720 5716 5712 5708 5704 5701 5697 5694 5691 5688 5685 5682 5680 5678 5676 5676 5675 5676 5676 5677 5679 5680 5683 5685 5688 5691 5694 5697 5700 5703 5706 5708 5710 5712 5714 5715 5716 5716 5715 5715 5714
5718 5714 5711 5707 5704 5701 5697 5694 5691 5688 5685 5683 5680 5678 5676 5674 5673 5672 5672 5672 5673 5674 5676 5677 5679 5681 5683 5686 5689 5692 5695 5698 5701 5703 5705 5706 5707 5708 5708 5708 5707 5705 5704
5707 5704 5701 5698 5695 5693 5690 5687 5685 5682 5680 5678 5676 5674 5672 5671 5670 5669 5669 5670 5671 5671 5673 5674 5676 5678 5680 5682 5685 5688 5691 5694 5696 5698 5700 5701 5701 5701 5701 5700 5698 5697 5694
5695 5693 5691 5689 5687 5685 5683 5681 5679 5677 5675 5673 5672 5670 5669 5668 5667 5667 5667 5667 5668 5669 5670 5672 5673 5675 5678 5680 5683 5686 5688 5691 5693 5694 5695 5696 5696 5696 5695 5693 5691 5688 5685
5682 5681 5680 5678 5677 5676 5675 5674 5673 5671 5670 5669 5668 5667 5666 5665 5665 5665 5665 5665 5666 5667 5668 5670 5672 5674 5677 5679 5681 5684 5686 5688 5689 5690 5691 5691 5691 5690 5688 5686 5683 5680 5676
5667 5667 5667 5667 5667 5667 5666 5666 5666 5665 5665 5665 5664 5664 5663 5662 5662 5663 5663 5664 5665 5666 5667 5669 5671 5673 5675 5678 5680 5682 5684 5685 5686 5687 5687 5687 5686 5684 5681 5679 5675 5672 5668
5650 5652 5653 5654 5655 5656 5657 5657 5658 5659 5660 5660 5660 5660 5660 5660 5660 5661 5661 5662 5663 5665 5666 5668 5670 5672 5675 5677 5678 5680 5681 5682 5683 5683 5683 5682 5680 5678 5675 5672 5668 5665 5660
5632 5635 5638 5641 5643 5644 5646 5648 5650 5652 5653 5654 5655 5656 5657 5657 5658 5659 5660 5661 5662 5663 5665 5667 5670 5672 5674 5675 5677 5678 5679 5680 5680 5680 5679 5677 5675 5673 5670 5666 5662 5658 5654
5613 5617 5622 5626 5630 5633 5636 5639 5641 5644 5647 5648 5650 5651 5653 5654 5655 5656 5657 5659 5660 5662 5664 5666 5668 5670 5672 5673 5675 5676 5676 5676 5676 5676 5675 5673 5671 5668 5665 5661 5657 5652 5647
5593 5599 5605 5610 5616 5621 5625 5629 5632 5636 5639 5642 5644 5646 5648 5650 5652 5654 5655 5657 5659 5660 5662 5664 5666 5668 5670 5671 5672 5672 5673 5673 5672 5672 5670 5669 5666 5663 5660 5656 5651 5647 5642
5575 5582 5589 5596 5603 5609 5614 5619 5623 5628 5632 5635 5638 5641 5643 5646 5648 5650 5652 5654 5656 5658 5660 5662 5664 5665 5667 5668 5668 5669 5669 5669 5668 5668 5666 5664 5662 5659 5655 5651 5647 5642 5637
5558 5567 5575 5582 5590 5597 5603 5609 5614 5620 5624 5628 5631 5635 5638 5641 5644 5646 5649 5651 5653 5655 5657 5659 5661 5662 5663 5664 5664 5665 5665 5665 5664 5663 5662 5659 5657 5654 5651 5647 5643 5638 5633
5545 5553 5562 5570 5578 5586 5593 5599 5605 5611 5616 5621 5625 5629 5633 5636 5639 5642 5644 5647 5649 5651 5653 5655 5657 5658 5659 5660 5660 5661 5661 5660 5659 5658 5657 5655 5652 5649 5646 5643 5638 5634 5628
5534 5542 5550 5559 5567 5576 5583 5590 5597 5603 5609 5614 5618 5623 5627 5630 5634 5637 5640 5643 5645 5647 5649 5651 5652 5654 5655 5656 5656 5656 5656 5655 5654 5653 5652 5650 5647 5644 5641 5638 5634 5629 5624
5525 5532 5541 5549 5558 5567 5575 5582 5589 5596 5602 5607 5613 5617 5621 5625 5629 5632 5635 5638 5640 5643 5645 5646 5648 5649 5650 5650 5651 5651 5650 5650 5649 5648 5646 5645 5642 5639 5636 5633 5629 5625 5620
5517 5524 5533 5541 5550 5559 5567 5575 5583 5589 5595 5601 5607 5611 5616 5620 5624 5627 5630 5633 5635 5637 5639 5641 5642 5644 5644 5645 5645 5645 5645 5644 5643 5642 5641 5639 5636 5634 5631 5628 5624 5620 5615
5510 5518 5526 5535 5544 5552 5561 5569 5576 5583 5589 5595 5601 5606 5610 5615 5619 5622 5625 5628 5630 5632 5634 5636 5637 5638 5638 5639 5639 5639 5638 5638 5637 5636 5635 5633 5631 5628 5625 5622 5619 5615 5611
5505 5513 5521 5529 5538 5547 5555 5563 5571 5578 5584 5590 5595 5601 5605 5609 5613 5617 5620 5622 5625 5627 5628 5630 5631 5632 5632 5632 5632 5632 5632 5631 5631 5630 5628 5627 5625 5622 5620 5616 5613 5609 5605
5501 5509 5517 5525 5534 5543 5551 5559 5566 5573 5579 5585 5591 5596 5600 5604 5608 5611 5614 5617 5619 5620 5622 5623 5624 5625 5625 5625 5625 5625 5625 5625 5624 5623 5622 5620 5618 5616 5613 5610 5607 5603 5600
5497 5505 5513 5522 5531 5540 5548 5556 5563 5569 5576 5581 5586 5591 5595 5599 5603 5606 5608 5611 5613 5614 5615 5617 5617 5618 5619 5619 5619 5619 5618 5618 5617 5616 5615 5613 5611 5609 5606 5603 5600 5597 5593
5495 5503 5511 5520 5529 5537 5545 5553 5560 5567 5573 5578 5582 5587 5591 5595 5598 5601 5603 5605 5607 5608 5609 5610 5611 5611 5612 5612 5612 5612 5612 5611 5610 5609 5608 5607 5605 5602 5600 5597 5593 5590 5586